Tracking 25193 objects as of 18-Jan-2022
HD Live streaming from Space Station
objects crossing your sky now

STARLINK-2012

Track STARLINK-2012 now!
10-day predictions
STARLINK-2012 is classified as:


NORAD ID: 47635
Int'l Code: 2021-012R
Perigee: 550.4 km
Apogee: 553.4 km
Inclination: 53.1 °
Period: 95.5 minutes
Semi major axis: 6922 km
RCS: Unknown
Launch date: February 16, 2021
Source: United States (US)
Launch site: AIR FORCE EASTERN TEST RANGE (AFETR)
aabbcc
Your satellite tracking list
Your tracking list is empty




NASA's NSSDC Master Catalog

Two Line Element Set (TLE):
1 47635U 21012R   22017.91667824 -.00030590  00000-0 -19993-2 0  9998
2 47635  53.0548 283.2241 0002156  66.0775 254.1905 15.07204356  3584
Source of the keplerian elements: AFSPC